Weather in Francistown

Botswana     21°09′59″S   27°30′41″E
temp.,
°C
wind,
m/s
gust,
m/s
humid.,
%
clouds,
%
prec.,
mm/h
press.,
hPa
HPBL,
m
17 april, sat
sat1723:00+17ese11178598 0.0 1021733
02:00+16e101580100 0.0 1021895
05:00+15e91380100 0.1 10221086
08:00+15e101476100 0.1 1025966
11:00+17e9116397 0.1 10251130
14:00+23e78420 0.1 10211501
17:00+22e77410 0.0 10201575
20:00+17e48570 0.0 1023193
18 april, sun
sun1823:00+14e38680 0.0 1024201
02:00+13e410760 0.0 1024264
05:00+11ese38830 0.0 1025194
08:00+14e59650 0.0 1026413
11:00+21e67380 0.0 10241153
14:00+25ese66270 0.0 10201837
17:00+24ese66270 0.0 10191825
20:00+18ese49450 0.0 1022142
19 april, mon
mon1923:00+15e37580 0.0 1023115
02:00+13ene33600 0.0 102229
05:00+12e33620 0.0 102245
08:00+15e36510 0.0 1023246
11:00+23e56320 0.0 10211170
14:00+27ese56230 0.0 10172329
17:00+25ese56240 0.0 10171921
20:00+18ese48420 0.0 1020124
20 april, tue
tue2023:00+16ene45500 0.0 102054
02:00+15ene33470 0.0 102024
05:00+13e33480 0.0 102132
08:00+16e48440 0.0 1023271
11:00+24e89280 0.0 10211618
14:00+26ese78210 0.0 10172101
17:00+24ese77230 0.0 10171820
20:00+18ese512390 0.0 1020227
21 april, wed
wed2123:00+16e412480 0.0 1021219
02:00+14e49590 0.0 1021142
05:00+12ene38710 0.0 1021135
08:00+16e510620 0.0 1022360
11:00+24e78320 0.0 10201376
14:00+27ese67220 0.0 10172202
17:00+25ese66240 0.0 10161808
20:00+19ese410400 0.0 1019162